Weather History for Vicksburg, MS

Change the Weather History Date:

Saturday, August 31, 2013

  Actual Average Record
Temperature  
Mean Temperature 80 °F 79 °F  
Max Temperature 94 °F 90 °F 106 °F (2000)
Min Temperature 66 °F 68 °F 58 °F (1968)
Degree Days  
Heating Degree Days 0 0  
Month to date heating degree days 0 0  
Since 1 June heating degree days 0 0  
Since 1 July heating degree days 0 0  
Cooling Degree Days 15 14  
Month to date cooling degree days 487 491  
Year to date cooling degree days 1707 1789  
Since 1 June cooling degree days 1377 1419  
Growing Degree Days 30 (Base 50)    
Moisture  
Dew Point 69 °F    
Average Humidity 73    
Maximum Humidity 100    
Minimum Humidity 46    
Precipitation  
Precipitation 0.00 in 0.14 in 1.16 in (1970)
Month to date precipitation 1.05 3.65  
Year to date precipitation 48.15 36.57  
Sea Level Pressure  
Sea Level Pressure 29.94 in    
Wind  
Wind Speed 3 mph (South)    
Max Wind Speed 14 mph    
Max Gust Speed 29 mph    
Visibility 5 miles    
Events Fog    
T = Trace of Precipitation, MM = Missing Value Source: NWS Daily Summary

Daily Weather History Graph

Daily Weather History Graph

Search for Another Location

Airport:

Trip Planner

Search our weather history database for the weather conditions in past years. The results will help you decide how hot, cold, wet, or windy it might be!

Date:

Astronomy

Aug. 31, 2013 Rise Set
Actual Time 6:38 AM CDT 7:29 PM CDT
Civil Twilight 6:13 AM CDT 7:54 PM CDT
Nautical Twilight 5:44 AM CDT 8:23 PM CDT
Astronomical Twilight 5:13 AM CDT 8:54 PM CDT
Moon 2:17 AM CDT (8/31) 4:19 PM CDT (8/31)
Length of Visible Light 13h 40m
Length of Day
12h 50m
Waning Crescent, 21% of the Moon is Illuminated
Aug 31
Waning Crescent
Sep 5
New
Sep 12
First Quarter
Sep 19
Full
Sep 26
Last Quarter

Hourly Weather History & Observations

Time (CDT) Temp. Heat Index Dew Point Humidity Pressure Visibility Wind Dir Wind Speed Gust Speed Precip Events Conditions
12:53 AM 70.0 °F - 68.0 °F 93% 29.94 in 5.0 mi South 3.5 mph - N/A   Clear
1:53 AM 69.1 °F - 68.0 °F 96% 29.94 in 3.0 mi Calm Calm - N/A   Clear
2:15 AM 69.8 °F - 66.2 °F 88% 29.92 in 2.5 mi Calm Calm - N/A   Clear
2:53 AM 69.1 °F - 68.0 °F 96% 29.94 in 2.0 mi Calm Calm - N/A   Clear
3:13 AM 68.0 °F - 66.2 °F 94% 29.92 in 1.5 mi Calm Calm - N/A   Clear
3:41 AM 69.8 °F - 66.2 °F 88% 29.93 in 0.5 mi Calm Calm - N/A Fog Fog
3:50 AM 69.8 °F - 68.0 °F 94% 29.93 in 2.0 mi Calm Calm - N/A   Clear
3:53 AM 69.1 °F - 68.0 °F 96% 29.95 in 4.0 mi Calm Calm - N/A   Clear
4:53 AM 66.9 °F - 66.0 °F 97% 29.95 in 2.0 mi Calm Calm - N/A   Clear
5:09 AM 66.2 °F - 66.2 °F 100% 29.93 in 1.5 mi Calm Calm - N/A   Clear
5:19 AM 68.0 °F - 66.2 °F 94% 29.93 in 0.2 mi Calm Calm - N/A Fog Fog
5:40 AM 66.2 °F - 66.2 °F 100% 29.93 in 1.5 mi Calm Calm - N/A   Clear
5:53 AM 66.9 °F - 66.0 °F 97% 29.95 in 1.5 mi Calm Calm - N/A   Clear
6:42 AM 66.2 °F - 64.4 °F 94% 29.95 in 0.5 mi South 3.5 mph - N/A Fog Fog
6:53 AM 66.9 °F - 64.9 °F 93% 29.97 in 0.8 mi Calm Calm - N/A   Clear
7:05 AM 68.0 °F - 66.2 °F 94% 29.96 in 1.2 mi Calm Calm - N/A   Clear
7:14 AM 69.8 °F - 66.2 °F 88% 29.96 in 2.5 mi Calm Calm - N/A   Clear
7:21 AM 69.8 °F - 68.0 °F 94% 29.96 in 3.0 mi South 3.5 mph - N/A   Clear
7:53 AM 75.0 °F - 71.1 °F 87% 29.99 in 4.0 mi Calm Calm - N/A   Clear
8:53 AM 81.0 °F 85.2 °F 72.0 °F 74% 30.00 in 6.0 mi Calm Calm - N/A   Haze
9:53 AM 86.0 °F 92.2 °F 72.0 °F 63% 29.99 in 9.0 mi Variable 3.5 mph - N/A   Clear
10:53 AM 89.1 °F 96.0 °F 72.0 °F 57% 29.99 in 9.0 mi Variable 4.6 mph - N/A   Clear
11:53 AM 91.0 °F 97.6 °F 71.1 °F 52% 29.96 in 10.0 mi WNW 3.5 mph - N/A   Clear
12:53 PM 91.9 °F 98.4 °F 71.1 °F 50% 29.96 in 10.0 mi Variable 4.6 mph - N/A   Clear
1:53 PM 91.9 °F 98.4 °F 71.1 °F 50% 29.94 in 10.0 mi South 8.1 mph - N/A   Clear
2:53 PM 93.0 °F 100.1 °F 71.1 °F 49% 29.91 in 10.0 mi SSE 15.0 mph 18.4 mph N/A   Clear
3:53 PM 91.9 °F 97.4 °F 70.0 °F 48% 29.90 in 10.0 mi South 6.9 mph - N/A   Clear
4:53 PM 93.0 °F 99.0 °F 70.0 °F 47% 29.89 in 10.0 mi Variable 6.9 mph - N/A   Clear
5:53 PM 91.0 °F 95.6 °F 69.1 °F 48% 29.88 in 10.0 mi SSW 4.6 mph - N/A   Clear
6:53 PM 87.1 °F 92.0 °F 70.0 °F 57% 29.88 in 9.0 mi South 4.6 mph - N/A   Clear
7:53 PM 79.0 °F - 72.0 °F 79% 29.89 in 9.0 mi South 3.5 mph - N/A   Clear
8:53 PM 75.0 °F - 72.0 °F 90% 29.91 in 5.0 mi Calm Calm - N/A   Clear
9:53 PM 77.0 °F - 72.0 °F 84% 29.91 in 7.0 mi South 4.6 mph - N/A   Clear
10:53 PM 77.0 °F - 72.0 °F 84% 29.91 in 7.0 mi South 3.5 mph - N/A   Clear
11:53 PM 72.0 °F - 70.0 °F 93% 29.90 in 5.0 mi Calm Calm - N/A   Clear